Weather History for Seretse Khama, Botswana

Change the Weather History Date:

Friday, July 19, 2013

  Actual Average Record
Temperature  
Mean Temperature 56 °F -  
Max Temperature 71 °F 73 °F 84 °F (2011)
Min Temperature 42 °F 43 °F 30 °F (2002)
Degree Days  
Heating Degree Days 8    
Growing Degree Days 6 (Base 50)    
Moisture  
Dew Point 39 °F    
Average Humidity 56    
Maximum Humidity 81    
Minimum Humidity 25    
Precipitation  
Precipitation 0.00 in - - ()
Sea Level Pressure  
Sea Level Pressure 30.23 in    
Wind  
Wind Speed 8 mph ()    
Max Wind Speed 76 mph    
Max Gust Speed -    
Visibility 6.2 miles    
Events      
Averages and records for this station are not official NWS values.
T = Trace of Precipitation, MM = Missing Value Source: Averaged Metar Reports

Daily Weather History Graph

Daily Weather History Graph

Search for Another Location

Airport:

Trip Planner

Search our weather history database for the weather conditions in past years. The results will help you decide how hot, cold, wet, or windy it might be!

Date:

Astronomy

Jul. 19, 2013 Rise Set
Actual Time 6:58 AM CAT 5:46 PM CAT
Civil Twilight 6:34 AM CAT 6:11 PM CAT
Nautical Twilight 6:06 AM CAT 6:39 PM CAT
Astronomical Twilight 5:38 AM CAT 7:06 PM CAT
Moon 2:30 PM CAT (7/19) 3:16 AM CAT (7/19)
Length of Visible Light 11h 36m
Length of Day
10h 48m
Waxing Gibbous, 84% of the Moon is Illuminated
Jul 19
Waxing Gibbous
Jul 22
Full
Jul 29
Last Quarter
Aug 6
New
Aug 14
First Quarter

Hourly Weather History & Observations

Time (CAT) Temp. Windchill Dew Point Humidity Pressure Visibility Wind Dir Wind Speed Gust Speed Precip Events Conditions
12:00 AM 50.0 °F - 39.2 °F 66% 30.30 in - NE 5.8 mph - N/A   Clear
1:00 AM 50.0 °F - 39.2 °F 66% 30.30 in - NE 5.8 mph - N/A   Clear
2:00 AM 48.2 °F - 39.2 °F 71% 30.30 in - East 6.9 mph - N/A   Clear
3:00 AM 46.4 °F 43.5 °F 37.4 °F 71% 30.27 in - ENE 5.8 mph - N/A   Clear
4:00 AM 46.4 °F 41.9 °F 37.4 °F 71% 30.27 in - ENE 9.2 mph - N/A   Clear
5:00 AM 44.6 °F 40.7 °F 37.4 °F 76% 30.27 in - ENE 6.9 mph - N/A   Clear
6:00 AM 42.8 °F 39.3 °F 37.4 °F 81% 30.27 in - ESE 5.8 mph - N/A   Clear
7:00 AM 44.6 °F 41.4 °F 37.4 °F 76% 30.27 in - East 5.8 mph - N/A   Clear
8:00 AM 46.4 °F 44.3 °F 39.2 °F 76% 30.30 in - East 4.6 mph - N/A   Clear
9:00 AM 51.8 °F - 44.6 °F 76% 30.30 in - ENE 10.4 mph - N/A   Clear
10:00 AM 57.2 °F - 46.4 °F 67% 30.30 in 6.2 mi NNE 12.7 mph - N/A   Partly Cloudy
11:00 AM 60.8 °F - 46.4 °F 59% 30.30 in 6.2 mi NE 10.4 mph - N/A   Partly Cloudy
12:00 PM 64.4 °F - 46.4 °F 52% 30.27 in - NE 9.2 mph - N/A   Clear
1:00 PM 68.0 °F - 41.0 °F 37% 30.21 in - NE 10.4 mph - N/A   Clear
2:00 PM 69.8 °F - 41.0 °F 35% 30.18 in - North 76.0 mph - N/A   Clear
3:00 PM 71.6 °F - 39.2 °F 31% 30.15 in - NNE 6.9 mph - N/A   Clear
4:00 PM 71.6 °F - 35.6 °F 27% 30.12 in - North 8.1 mph - N/A   Clear
5:00 PM 71.6 °F - 33.8 °F 25% 30.12 in - North 4.6 mph - N/A   Clear
6:00 PM 68.0 °F - 33.8 °F 28% 30.12 in - NE 4.6 mph - N/A   Clear
7:00 PM 59.0 °F - 39.2 °F 48% 30.12 in - ENE 6.9 mph - N/A   Clear
8:00 PM 59.0 °F - 37.4 °F 45% 30.15 in - NE 5.8 mph - N/A   Clear
9:00 PM 57.2 °F - 39.2 °F 51% 30.15 in - NNE 3.5 mph - N/A   Clear
10:00 PM 55.4 °F - 39.2 °F 54% 30.18 in - ESE 3.5 mph - N/A   Clear
11:00 PM 53.6 °F - 41.0 °F 62% 30.18 in - ENE 6.9 mph - N/A   Clear